Regional Weather Roundup
Issued by NWS

Home | Current Version | Previous Version | Text Only | Print | Product List | Glossary Off
Versions: 1 2 3 4 5 6 7 8 9 10 11 12 13 14 15 16 17 18 19 20 21 22 23 24 25 26 27

000
ASUS45 KTFX 210310
RWRMT
MONTANA REGIONAL WEATHER ROUNDUP
NATIONAL WEATHER SERVICE GREAT FALLS MT
900 PM MDT SUN AUG 20 2017

NOTE: "FAIR" INDICATES FEW OR NO CLOUDS BELOW 12000 FEET WITH NO
SIGNIFICANT WEATHER AND/OR OBSTRUCTIONS TO VISIBILITY.

MTZ001>007-043-210400-
WEST OF THE DIVIDE

CITY           SKY/WX    TMP DP  RH WIND       PRES   REMARKS
KALISPELL      PTCLDY    71  38  29 W5        30.02R
MISSOULA       MOCLDY    73  34  23 N8        30.04R
BUTTE          CLOUDY    67  28  23 N6        30.14R
MULLAN PASS    MOCLDY    55  33  43 VRB5      30.20R
ANACONDA         N/A     64  32  29 CALM      30.11R
DEER LODGE       N/A     66  34  30 N5        30.11R
EUREKA           N/A     75  37  25 MISG      30.01R
HAMILTON         N/A     66  46  48 CALM      30.06R
LIBBY            N/A     70  39  32 CALM      30.01R
PLAINS           N/A     72  40  31 W1        30.04
RONAN            N/A     66  47  50 CALM      30.09R
$$

MTZ008-052>055-210400-
SOUTHWEST MONTANA

CITY           SKY/WX    TMP DP  RH WIND       PRES   REMARKS
BOZEMAN        PTCLDY    64  36  35 NW9       30.06R
DILLON         PTCLDY    61  40  45 N7        30.07R
W YELLOWSTONE  CLOUDY    63  34  34 SW7       30.17R
ENNIS          CLOUDY    63  34  34 NE7       30.13R
THREE FORKS      N/A     71  29  21 CALM      30.05R
$$

MTZ009-010-012-014-046-048-049-054-210400-
EAST SLOPES AND CENTRAL MONTANA

CITY           SKY/WX    TMP DP  RH WIND       PRES   REMARKS
CUT BANK       CLOUDY    67  35  30 NW7       30.03R
GREAT FALLS    PTCLDY    68  27  21 N3        30.02R
MALMSTROM AFB  PTCLDY    69  29  22 N3        30.02R
HELENA         CLOUDY    73  29  19 W8        30.05R
AUGUSTA        MOCLDY    65  30  27 N10       30.07R
BOWMANS CRNR     N/A     65  28  24 NE8       30.05R
CHOTEAU          N/A     66  34  30 NW9       30.06R
CONRAD           N/A     64  39  39 CALM      30.06R
FAIRFIELD      MOCLDY    67  29  24 NW6       30.03R
POWER            N/A     69  29  23 NW17      30.02R
RAYNESFORD       N/A     61  27  27 SW5       30.05R
ULM            MOCLDY    69  29  22 N8        30.02R
$$

MTZ011-013-016-021-045-047-050-051-210400-
NORTH CENTRAL MONTANA

CITY           SKY/WX    TMP DP  RH WIND       PRES   REMARKS
HAVRE          CLOUDY    71  28  20 N7        29.97R
LEWISTOWN      CLOUDY    64  30  27 CALM      30.05R
N BAR RANCH      N/A     61  30  31 NW8       30.09R
CHINOOK          N/A     70  36  28 CALM      29.96R
DENTON           N/A     68  29  22 CALM      29.99R
GEYSER         MOCLDY    67  24  19 S8        30.03R
GRASS RANGE      N/A     64  28  26 W7        30.01R
JUDITH GAP       N/A     60  31  34 NW13      30.06R
WINIFRED       MOCLDY    69  26  20 NE9       30.02R
$$

MTZ017>020-022>027-061-062-210400-
NORTHEAST MONTANA

CITY           SKY/WX    TMP DP  RH WIND       PRES   REMARKS
GLASGOW        PTCLDY    70  38  31 NW8       29.92R
JORDAN           N/A     72  36  26 MISG      29.95R
SIDNEY         PTCLDY    66  48  52 SE5       29.97
WOLF POINT     CLOUDY    74  40  29 VRB6      29.91R
MALTA          PTCLDY    70  28  21 NW10      29.94R
PLENTYWOOD       N/A     70  37  30 SE13      29.93S
POPLAR           N/A     72  41  33 SE10G16   29.92S
SCOBEY           N/A     71  36  27 SE8       29.92
$$

MTZ028>42-056>058-210400-
SOUTHCENTRAL AND SOUTHEAST MONTANA

CITY           SKY/WX    TMP DP  RH WIND       PRES   REMARKS
BAKER          PTCLDY    67  44  43 E20G28    29.98R
BILLINGS       CLOUDY    74  30  19 N13       30.00R
LIVINGSTON     CLOUDY    63  31  30 SW7       30.05R
MILES CITY     CLOUDY    76  40  27 N18       29.91R
BIG TIMBER     CLEAR     70  25  18 E6        30.07R
EKALAKA          N/A     69  40  34 SE16      29.97
HARLOWTON      MOCLDY    66  29  24 MISG      30.05R
LAUREL           N/A     73  25  16 NW5       30.00R
$$

REGIONAL REPORTS...DAKOTAS

CITY           SKY/WX    TMP DP  RH WIND       PRES   REMARKS
WILLISTON      CLOUDY    69  47  45 S9        29.98R
MINOT          MOCLDY    65  46  50 SE3       30.00R
DICKINSON      CLOUDY    56  45  66 SE9       30.01R
BEACH            N/A     64  43  45 SE12      30.02R
CROSBY           N/A     66  36  32 SE12      29.96S
TIOGA          MOCLDY    64  46  52 S9        30.01R
WATFORD CITY     N/A     63  45  51 SE7       29.99R
BISMARCK       CLOUDY    60  56  86 SE6       30.04R
GRAND FORKS    PTCLDY    57  52  83 SW5       30.00R HAZE
FARGO          MOCLDY    65  53  65 SW5       30.02R
BUFFALO SD       N/A     69  46  43 E16       29.95R
RAPID CITY     CLEAR     70  53  54 SE13      30.01R
$$

REGIONAL REPORTS...WYOMING/IDAHO/WASHINGTON

CITY           SKY/WX    TMP DP  RH WIND       PRES   REMARKS
GILLETTE       CLEAR     77  33  20 W3        29.99R
SHERIDAN       CLEAR     69  42  37 W10       30.01R
BUFFALO WY     CLEAR     73  37  27 NW18G28   30.06R
CODY           CLOUDY    68  40  35 CALM      30.09R
YELLOWSTONE LA   N/A     52  40  63 CALM      30.27R
IDAHO FALLS    CLOUDY    75  37  25 S12       30.03R
SALMON         MOCLDY    72  38  29 CALM      30.01R
BOISE          PTCLDY    76  35  22 NW6       29.97R
SPOKANE        PTCLDY    74  37  26 S7        30.03R
$$

REGIONAL REPORTS...ALBERTA

CITY           SKY/WX    TMP DP  RH WIND       PRES   REMARKS
EDMONTON       PTCLDY    54  46  76 W7        29.99R
CALGARY        MOCLDY    59  39  47 NE10      30.05R
LETHBRIDGE     CLOUDY    68  37  32 E3        29.99R
MEDICINE HAT   CLOUDY    66  37  34 CALM      29.97R
$$

REGIONAL REPORTS...SASKATCHEWAN

CITY           SKY/WX    TMP DP  RH WIND       PRES   REMARKS
SWIFT CURRENT  MOCLDY    63  36  36 NE15G21   29.93R
REGINA         MOCLDY    64  36  34 SE13G20   29.92R
SASKATOON      MOCLDY    57  45  62 W7        29.95R
$$




USA.gov is the U.S. government's official web portal to all federal, state and local government web resources and services.